| time (UTC) | temp C | wind direction | speed KPH | gust KPH | rain 1hr cm | rain 24hr cm | rain mn cm | humidity % | barometer mb |
| 20260505034534 | 16 | 0 | 0.0 | 4.8 | 0.00 | 0.00 | 0.00 | 42 | 1006.9 |
| 20260505033036 | 17 | 0 | 0.0 | 6.4 | 0.00 | 0.00 | 0.00 | 43 | 1006.7 |
| 20260505031532 | 17 | 0 | 1.6 | 11.3 | 0.00 | 0.00 | 0.00 | 40 | 1006.5 |
| 20260505030032 | 17 | 0 | 0.0 | 3.2 | 0.00 | 0.00 | 0.00 | 36 | 1005.9 |
| 20260505024540 | 17 | 0 | 0.0 | 3.2 | 0.00 | 0.00 | 0.00 | 36 | 1005.7 |
| 20260505023034 | 18 | 0 | 0.0 | 3.2 | 0.00 | 0.00 | 0.00 | 36 | 1005.6 |
| 20260505021536 | 18 | 0 | 0.0 | 1.6 | 0.00 | 0.00 | 0.00 | 35 | 1005.5 |
| 20260505020033 | 20 | 0 | 0.0 | 1.6 | 0.00 | 0.00 | 0.00 | 33 | 1005.5 |
| 20260505014538 | 20 | 0 | 0.0 | 4.8 | 0.00 | 0.00 | 0.00 | 30 | 1005.3 |
| 20260505013033 | 20 | 0 | 0.0 | 6.4 | 0.00 | 0.00 | 0.00 | 29 | 1005.4 |
| 20260505011533 | 20 | 0 | 0.0 | 3.2 | 0.00 | 0.00 | 0.00 | 30 | 1005.6 |
| 20260505010036 | 20 | 0 | 0.0 | 6.4 | 0.00 | 0.00 | 0.00 | 32 | 1005.6 |
| 20260505004536 | 21 | 169 | 0.0 | 8.0 | 0.00 | 0.00 | 0.00 | 30 | 1005.7 |
| 20260505003032 | 22 | 181 | 1.6 | 8.0 | 0.00 | 0.00 | 0.00 | 28 | 1005.9 |
| 20260505001546 | 22 | 186 | 1.6 | 8.0 | 0.00 | 0.00 | 0.00 | 30 | 1006.0 |
| 20260505000041 | 22 | 188 | 3.2 | 9.7 | 0.00 | 0.00 | 0.00 | 29 | 1006.2 |
| 20260504234536 | 21 | 183 | 3.2 | 9.7 | 0.00 | 0.00 | 0.00 | 31 | 1006.2 |
| 20260504233037 | 21 | 163 | 3.2 | 12.9 | 0.00 | 0.00 | 0.00 | 31 | 1006.4 |
| 20260504231548 | 22 | 153 | 3.2 | 12.9 | 0.00 | 0.00 | 0.00 | 29 | 1006.5 |
| 20260504230033 | 24 | 252 | 0.0 | 12.9 | 0.00 | 0.00 | 0.00 | 25 | 1006.6 |
| 20260504224536 | 23 | 177 | 1.6 | 17.7 | 0.00 | 0.00 | 0.00 | 27 | 1006.5 |
| 20260504223035 | 23 | 214 | 3.2 | 14.5 | 0.00 | 0.00 | 0.00 | 29 | 1006.5 |
| 20260504221535 | 25 | 225 | 3.2 | 14.5 | 0.00 | 0.00 | 0.00 | 26 | 1006.3 |
| 20260504220036 | 25 | 238 | 3.2 | 12.9 | 0.00 | 0.00 | 0.00 | 20 | 1006.5 |
| 20260504214532 | 25 | 352 | 3.2 | 11.3 | 0.00 | 0.00 | 0.00 | 22 | 1006.5 |
| 20260504213032 | 26 | 325 | 1.6 | 6.4 | 0.00 | 0.00 | 0.00 | 21 | 1006.8 |
| 20260504211534 | 25 | 277 | 0.0 | 14.5 | 0.00 | 0.00 | 0.00 | 25 | 1006.9 |
| 20260504210050 | 25 | 202 | 1.6 | 6.4 | 0.00 | 0.00 | 0.00 | 25 | 1007.0 |
| 20260504204531 | 25 | 270 | 1.6 | 9.7 | 0.00 | 0.00 | 0.00 | 25 | 1007.3 |
| 20260504203034 | 25 | 82 | 0.0 | 6.4 | 0.00 | 0.00 | 0.00 | 25 | 1007.5 |
| 20260504201530 | 25 | 229 | 1.6 | 6.4 | 0.00 | 0.00 | 0.00 | 25 | 1007.4 |
| 20260504200033 | 25 | 294 | 1.6 | 8.0 | 0.00 | 0.00 | 0.00 | 24 | 1007.6 |
| 20260504194546 | 25 | 294 | 0.0 | 14.5 | 0.00 | 0.00 | 0.00 | 25 | 1007.6 |
| 20260504193032 | 24 | 237 | 0.0 | 4.8 | 0.00 | 0.00 | 0.00 | 32 | 1007.9 |
| 20260504191541 | 23 | 0 | 0.0 | 4.8 | 0.00 | 0.00 | 0.00 | 27 | 1008.0 |
| 20260504190033 | 24 | 0 | 0.0 | 4.8 | 0.00 | 0.00 | 0.00 | 28 | 1008.3 |
| 20260504184538 | 23 | 0 | 0.0 | 8.0 | 0.00 | 0.00 | 0.00 | 27 | 1008.4 |
| 20260504183030 | 23 | 292 | 0.0 | 4.8 | 0.00 | 0.00 | 0.00 | 30 | 1008.6 |
| 20260504181530 | 22 | 211 | 0.0 | 6.4 | 0.00 | 0.00 | 0.00 | 29 | 1009.0 |
| 20260504180040 | 22 | 322 | 1.6 | 4.8 | 0.00 | 0.00 | 0.00 | 30 | 1009.1 |
| 20260504174529 | 22 | 0 | 0.0 | 6.4 | 0.00 | 0.00 | 0.00 | 35 | 1009.3 |
| 20260504173036 | 21 | 157 | 1.6 | 8.0 | 0.00 | 0.00 | 0.00 | 31 | 1009.4 |
| 20260504171531 | 21 | 0 | 0.0 | 4.8 | 0.00 | 0.00 | 0.00 | 33 | 1009.4 |
| 20260504081532 | 12 | 47 | 0.0 | 3.2 | 0.00 | 0.00 | 0.00 | 35 | 1008.6 |
| 20260504044532 | 17 | 0 | 0.0 | 1.6 | 0.00 | 0.00 | 0.00 | 24 | 1009.2 |
| 20260504043031 | 17 | 0 | 0.0 | 6.4 | 0.00 | 0.00 | 0.00 | 23 | 1009.3 |
| 20260504041537 | 17 | 71 | 0.0 | 4.8 | 0.00 | 0.00 | 0.00 | 23 | 1009.4 |
| 20260504040040 | 17 | 71 | 1.6 | 4.8 | 0.00 | 0.00 | 0.00 | 23 | 1009.4 |